Regional Weather Roundup
Issued by NWS San Angelo, TX

Home | Current Version | Previous Version | Text Only | Print | Product List | Glossary On
Versions: 1 2 3 4 5 6 7 8 9 10 11 12 13 14 15 16 17 18 19 20 21 22 23 24 25 26 27 28 29 30 31 32 33 34 35 36 37 38 39 40 41 42 43 44 45 46 47 48 49 50
000
ASUS44 KSJT 031802
RWRSJT
WEST CENTRAL TEXAS REGIONAL WEATHER ROUNDUP
NATIONAL WEATHER SERVICE SAN ANGELO TX
100 PM CDT THU SEP 03 2015

NOTE: "FAIR" INDICATES FEW OR NO CLOUDS BELOW 12,000 FEET WITH NO
SIGNIFICANT WEATHER AND/OR OBSTRUCTIONS TO VISIBILITY.

TXZ049-054-064>066-071>073-076>078-098-099-113-114-127-128-139-140-
154-155-168>170-031900
...LOCATIONS ACROSS WEST CENTRAL TEXAS...

CITY           SKY/WX    TMP DP  RH WIND       PRES   REMARKS
SAN ANGELO     MOSUNNY   89  64  43 S6        29.99F
ABILENE          N/A     88  64  44 MISG      29.99F
DYESS AFB      MOSUNNY   89  66  46 VRB3      29.98F
JUNCTION       MOSUNNY   89  62  40 SE7       29.98
SWEETWATER     NOT AVBL
BROWNWOOD      NOT AVBL
COLEMAN        CLEAR     89  65  44 SE5       29.99F
SONORA         NOT AVBL
OZONA          NOT AVBL
BRADY          NOT AVBL
$$

TEXAS PANHANDLE/OKLAHOMA PANHANDLE

CITY           SKY/WX    TMP DP  RH WIND       PRES   REMARKS
AMARILLO       MOSUNNY   90  55  30 S12       29.99F
BORGER         SUNNY     94  54  25 S13G20    29.94F
CANADIAN       SUNNY     91  60  35 S17       29.92F
DALHART        PTSUNNY   94  49  21 SW18G24   29.99F
DUMAS          PTCLDY    92  51  24 SW18G25   29.97F
GUYMON         NOT AVBL
HEREFORD       NOT AVBL
PAMPA          NOT AVBL
PERRYTON       NOT AVBL
$$

SOUTHERN PANHANDLE/SOUTH PLAINS/ROLLING PLAINS

CITY           SKY/WX    TMP DP  RH WIND       PRES   REMARKS
LUBBOCK        MOSUNNY   88  59  37 S15       30.03F
SNYDER         NOT AVBL
CHILDRESS      SUNNY     93  58  30 SW9       29.95F
SEMINOLE       NOT AVBL
$$

PERMIAN BASIN

CITY           SKY/WX    TMP DP  RH WIND       PRES   REMARKS
MIDLAND        SUNNY     90  55  30 SE10G22   30.02F
ODESSA         SUNNY     90  53  28 S16       30.03F
WINK           SUNNY     93  53  25 SE16G25   29.98F
$$

FAR WEST/SOUTHWEST MOUNTAINS/TRANS PECOS

CITY           SKY/WX    TMP DP  RH WIND       PRES   REMARKS
ALPINE         CLEAR     90  44  20 E12       30.15F
DRYDEN           N/A     92  63  38 VRB6      29.97F
EL PASO        PTSUNNY   86  49  27 S5        30.06F
FORT STOCKTON  SUNNY     91  52  26 E13G21    30.01F
GUADALUPE PASS SUNNY     89  52  28 SW9       30.17F
MARFA          SUNNY     86  52  30 CALM      30.13F
PECOS          NOT AVBL
$$

DALLAS/FORT WORTH METROPLEX

CITY           SKY/WX    TMP DP  RH WIND       PRES   REMARKS
DFW AIRPORT    PTSUNNY   91  63  39 SE8       29.97F
FTW MEACHAM    SUNNY     92  65  40 S14G20    29.97F
DAL-EXECUTIVE  SUNNY     90  62  39 SE10G17   29.97F
GRAND PRAIRIE  SUNNY     88  66  48 S9        29.99F
ADDISON        NOT AVBL
MESQUITE       CLEAR     90  63  40 SE6       29.98F
LANCASTER      CLEAR     90  62  38 SE8       29.98F
$$

NORTH CENTRAL TEXAS

CITY           SKY/WX    TMP DP  RH WIND       PRES   REMARKS
SHRMAN/DENISON PTCLDY    92  65  41 SE13      29.99F
GAINESVILLE    NOT AVBL
BRIDGEPORT     CLEAR     89  67  48 E10G16    29.99F
DENTON         SUNNY     89  66  46 S9        29.97F
WAXAHACHIE     PTCLDY    89  67  47 CALM      29.99F
GRANBURY       NOT AVBL
$$

WESTERN NORTH TEXAS

CITY           SKY/WX    TMP DP  RH WIND       PRES   REMARKS
WICHITA FALLS  MOSUNNY   93  62  35 S12G21    29.95F
VERNON         CLEAR     94  54  25 S15       29.95F
BRECKENRIDGE   NOT AVBL
COMANCHE       PTSUNNY   91  63  39 SE5       29.99F
$$

CENTRAL AND SOUTH CENTRAL TEXAS

CITY           SKY/WX    TMP DP  RH WIND       PRES   REMARKS
AUSTIN/BERGSTM PTSUNNY   88  67  49 VRB5      29.95F
WACO           MOSUNNY   89  68  49 S7        29.97F
HILLSBORO      NOT AVBL
TEMPLE         MOSUNNY   88  66  48 E5        29.97F
KILLEEN-GRAY   PTSUNNY   85  67  53 VRB5      29.97F
FORT HOOD      SUNNY     87  67  52 VRB5      29.96F
GEORGETOWN     PTSUNNY   88  68  51 SE3       29.97
LAGO VISTA     CLOUDY    88  66  48 E5        29.99F
SAN MARCOS     NOT AVBL
NEW BRAUNFELS  MOSUNNY   90  68  48 VRB5      29.94F
RANDOLPH AFB   MOSUNNY   88  67  50 E6        29.95F
SAN ANTONIO    MOSUNNY   90  66  45 CALM      29.96F
STINSON        PTSUNNY   90  69  50 VRB5      29.92F
PLEASANTON     NOT AVBL
LA GRANGE      NOT AVBL
GIDDINGS       NOT AVBL
$$

EAST TEXAS

CITY           SKY/WX    TMP DP  RH WIND       PRES   REMARKS
PARIS          MOSUNNY   91  63  38 SE6G16    29.98F
CLARKSVILLE    NOT AVBL
TYLER          PTSUNNY   88  69  53 SE10      29.99F
LONGVIEW       MOSUNNY   88  71  57 SE9       29.98F
PALESTINE      PTCLDY    88  71  55 SE6       29.98F
NACOGDOCHES    MOSUNNY   88  72  58 SE3       29.97F
$$

TEXAS HILL COUNTRY AND EDWARDS PLATEAU

CITY           SKY/WX    TMP DP  RH WIND       PRES   REMARKS
LLANO          NOT AVBL
HORSESHOE BAY  FAIR      89  67  47 NE3       29.98F
KERRVILLE      MOSUNNY   85  66  54 W3        30.00F
FREDERICKSBRG  NOT AVBL
ROCKSPRINGS    PTCLDY    88  64  45 S10       30.04F
HONDO          MOSUNNY   88  66  48 VRB3      29.97F
UVALDE         NOT AVBL
DEL RIO        SUNNY     92  69  47 VRB3G16   29.92F
$$

SOUTHEAST TEXAS

CITY           SKY/WX    TMP DP  RH WIND       PRES   REMARKS
COLLEGE STN    PTSUNNY   87  71  58 VRB6      29.95F
CALDWELL       NOT AVBL
CROCKETT       MOCLDY    86  68  54 CALM      29.99F
BRENHAM        NOT AVBL
HUNTSVILLE     MOSUNNY   88  70  55 VRB6      29.96F
CONROE         MOSUNNY   88  70  55 SE9       29.96F
HOUSTON BUSH   MOSUNNY   89  73  59 E7        29.95F
HOUSTON HOBBY  MOSUNNY   87  72  60 VRB3      29.94F
PERLAND        LGT RAIN  86  73  65 E8        29.95F
WHARTON        NOT AVBL
$$

THE UPPER TEXAS COAST

CITY           SKY/WX    TMP DP  RH WIND       PRES   REMARKS
ORANGE         MOCLDY    85  74  70 E5        29.98F
PORT ARTHUR    PTSUNNY   83  75  77 S9        29.95F
GALVESTON      PTSUNNY   86  76  71 E9        29.96F
ANGLETON       SUNNY     87  74  64 E8        29.94F
BAY CITY       MOCLDY    86  76  71 CALM      29.93F
$$

TEXAS COASTAL BEND, RIO GRANDE PLAINS DEEP SOUTH TEXAS

CITY           SKY/WX    TMP DP  RH WIND       PRES   REMARKS
VICTORIA       CLOUDY    84  74  71 NE3       29.93F
BEEVILLE       MOCLDY    90  74  58 CALM      29.92F
ROCKPORT       SUNNY     87  75  67 E6        29.91F
PORT ARANSAS   MOCLDY    86  76  71 E9        29.92S
PORT LAVACA    CLEAR     85  74  69 CALM      29.93F
CORPUS CHRISTI PTSUNNY   89  72  56 E3        29.91F
KINGSVILLE NAS PTSUNNY   91  74  57 VRB6      29.90F
COTULLA        MOSUNNY   91  68  46 VRB3      29.92F
LAREDO         SUNNY     96  67  38 E7        29.92F
BROWNSVILLE    CLOUDY    87  83  87 CALM      29.89F
PORT ISABEL    MOSUNNY   91  79  67 E9        29.90F
HEBBRONVILLE   NOT AVBL
MCALLEN        MOSUNNY   93  73  52 SE8       29.89F
WESLACO        NOT AVBL
FALFURRIAS     CLOUDY    92  71  50 NE3       29.89F
EDINBURG       PTCLDY    95  69  42 SE6       29.89F
$$


USA.gov is the U.S. government's official web portal to all federal, state and local government web resources and services.